sat.trackr.live / text

‹ back to catalog

STARLINK-35874

NORAD 66962 · 2025-288D

PAYLOAD ACTIVE UNKNOWN

§ Identity

Operator
Country
US
Launch date
2025-12-08
Launch site
AFETR
Launch vehicle
Mass (kg)
RCS (m²)

Purposes: comms

External: N2YO · Heavens-Above · Gunter

§ Orbital elements

Epoch: 2026-05-24T20:57:05.412384Z

Period
94.27 min
Inclination
43.0028°
Eccentricity
0.0001784
Mean motion
15.27588528 rev/d
Perigee alt
481.8 km
Apogee alt
484.2 km
Semi-major
6,861.2 km
B*
8.0918e-4
RAAN
313.6440°
Arg perigee
268.7475°
Mean anomaly
91.3172°
Rev number
2,693

§ Raw data

STARLINK-358741 66962U 25288D   26144.87297931  .00022077  00000+0  80918-3 0  99932 66962  43.0028 313.6440 0001784 268.7475  91.3172 15.27588528 26932

JSON: /api/v1/satellites/66962 · /tle

For live sub-satellite position, see the globe view (requires WebGL).

§ Visibility from observer

Set your observer location to see the next 7 days of passes ≥ 10°. The values pass through the URL so the page stays shareable.

No JS? Fill the form by hand. The geolocation button needs JavaScript.